Tracking 31027 objects as of 19-Jul-2025
HD Live streaming from Space Station
objects crossing your sky now

IRIDIUM 33 DEB

Track IRIDIUM 33 DEB now!
10-day predictions


NORAD ID: 33867
Int'l Code: 1997-051AL
Perigee: 540.4 km
Apogee: 559.0 km
Inclination: 86.4 °
Period: 95.5 minutes
Semi major axis: 6920 km
RCS: 0.1307 m2 (medium)
Launch date: September 14, 1997
Source: United States (US)
Launch site: TYURATAM MISSILE AND SPACE COMPLEX (TTMTR)

Note: This is SATELLITE DEBRIS
Your satellite tracking list
STARLINK-31009
Track 1 satellite(s)




NASA's NSSDC Master Catalog

Two Line Element Set (TLE):
1 33867U 97051AL  25199.60740060  .00030896  00000-0  20019-2 0  9998
2 33867  86.3666  61.7883 0013473 219.9316 140.0930 15.07914620872689
Source of the keplerian elements: AFSPC